Time[GMT],air_temperature[C](-3m),wind_speed[m/s](-4m),wind_gust[m/s](-4m),visibility[m](-3m),barometric_pressure[millibars](-3m),wind_2_direction[degrees_true](-4m),wind_2_gust[m/s](-4m),wind_2_percent_good[m/s](-4m),wind_2_speed[m/s](-4m),wind_direction[degrees_true](-4m)
2006-05-10 02:00,8.0,7.6,10.1,1725,1016.18,30.75,0.00,0.00,7.62,30.75
2006-05-10 03:00,8.6,7.9,9.6,2936,1015.94,35.42,0.00,0.00,7.93,35.42
2006-05-10 04:00,8.3,7.8,9.4,2738,1015.38,27.38,0.00,0.00,7.78,27.38
2006-05-10 05:00,8.6,6.5,8.9,2820,1015.08,24.80,0.00,0.00,6.46,24.80
2006-05-10 06:00,8.3,6.3,7.3,2954,1015.14,15.80,0.00,0.00,6.25,15.80
2006-05-10 07:00,8.4,7.7,8.8,2860,1014.65,23.94,0.00,0.00,7.72,23.94
2006-05-10 08:00,8.4,8.1,9.2,2882,1014.71,29.84,0.00,0.00,8.06,29.84
2006-05-10 09:00,8.4,7.6,9.0,2881,1015.02,33.67,0.00,0.00,7.59,33.67
2006-05-10 10:00,8.3,7.6,8.7,2807,1014.95,17.81,0.00,0.00,7.58,17.81
2006-05-10 11:00,8.3,6.4,7.8,2929,1015.26,22.95,0.00,0.00,6.41,22.95
2006-05-10 12:00,8.1,6.1,7.0,2491,1015.88,22.01,0.00,0.00,6.10,22.01
2006-05-10 13:00,8.0,5.7,6.5,1971,1015.81,22.76,0.00,0.00,5.69,22.76
2006-05-10 14:00,8.2,6.9,8.0,1852,1015.32,21.28,0.00,0.00,6.90,21.28
2006-05-10 15:00,8.3,6.3,7.1,2050,1015.57,21.07,0.00,0.00,6.27,21.07
2006-05-10 16:00,8.6,5.6,6.5,2139,1015.57,22.79,0.00,0.00,5.56,22.79
2006-05-10 17:00,8.8,5.9,6.6,2482,1015.51,14.63,0.00,0.00,5.89,14.63
2006-05-10 18:00,9.4,6.2,6.9,2218,1015.32,21.11,0.00,0.00,6.21,21.11
2006-05-10 19:00,10.0,5.3,5.9,1951,1015.20,21.89,0.00,0.00,5.28,21.89
2006-05-10 20:00,10.2,5.1,5.8,2605,1015.08,22.09,0.00,0.00,5.10,22.09
2006-05-10 21:00,10.9,5.0,6.9,2640,1014.89,44.58,0.00,0.00,5.05,44.58
2006-05-10 22:00,11.0,5.3,6.0,2751,1014.83,50.40,0.00,0.00,5.32,50.40
2006-05-10 23:00,10.8,4.1,5.1,2470,1014.89,45.10,0.00,0.00,4.15,45.10
2006-05-11 00:00,10.4,5.3,6.9,2885,1014.83,57.90,0.00,0.00,5.26,57.90
2006-05-11 01:00,10.5,5.9,7.4,2893,1014.95,64.10,0.00,0.00,5.89,64.10
2006-05-11 02:00,10.3,6.3,7.4,2792,1014.95,65.80,0.00,0.00,6.26,65.80
2006-05-11 03:00,10.4,7.8,9.1,2922,1014.77,,,,,71.80
2006-05-11 04:00,10.0,7.7,8.9,2542,1014.65,72.90,0.00,0.00,7.73,72.90
2006-05-11 05:00,10.1,7.2,9.3,2822,1014.77,72.90,0.00,0.00,7.17,72.90
2006-05-11 06:00,10.0,6.8,7.9,1272,1014.46,67.90,0.00,0.00,6.82,67.90
2006-05-11 07:00,10.1,6.7,8.0,1854,1014.46,66.40,0.00,0.00,6.75,66.40
2006-05-11 08:00,9.7,7.4,9.1,1949,1014.53,69.10,0.00,0.00,7.38,69.10
2006-05-11 09:00,9.3,5.9,7.1,2707,1014.89,62.90,0.00,0.00,5.86,62.90
2006-05-11 10:00,9.0,4.6,5.8,2925,1015.57,67.40,0.00,0.00,4.62,67.40
2006-05-11 11:00,8.8,2.6,3.5,2776,1016.36,72.30,0.00,0.00,2.64,72.30
2006-05-11 12:00,8.6,3.9,4.7,1686,1017.04,75.20,0.00,0.00,3.91,75.20
2006-05-11 13:00,8.5,2.8,3.8,1561,1017.04,58.40,0.00,0.00,2.76,58.40
2006-05-11 14:00,8.5,3.9,4.7,1845,1017.41,60.90,0.00,0.00,3.94,60.90
2006-05-11 15:00,8.7,5.8,8.0,1654,1017.41,77.30,0.00,0.00,5.79,77.30
2006-05-11 16:00,9.0,3.0,4.2,2910,1018.02,50.55,0.00,0.00,3.01,50.55
2006-05-11 17:00,8.9,2.9,4.5,2613,1018.39,39.76,0.00,0.00,2.94,39.76
2006-05-11 18:00,8.8,3.8,4.8,2652,1018.21,47.51,0.00,0.00,3.75,47.51
2006-05-11 19:00,8.7,5.4,7.4,1247,1017.53,53.90,0.00,0.00,5.42,53.90
2006-05-11 20:00,9.1,3.8,4.6,2445,1017.96,51.46,0.00,0.00,3.79,51.46
2006-05-11 21:00,9.2,3.7,5.8,1344,1017.90,58.30,0.00,0.00,3.69,58.30
2006-05-11 22:00,9.1,6.4,8.0,1413,1017.53,66.00,0.00,0.00,6.39,66.00
2006-05-11 23:00,9.0,5.8,7.4,2525,1017.78,,,,,71.90
2006-05-12 00:00,8.7,5.9,7.2,2704,1017.84,70.20,0.00,0.00,5.92,70.20
2006-05-12 01:00,8.4,4.8,6.6,2354,1018.02,63.70,0.00,0.00,4.81,63.70
2006-05-12 02:00,8.2,4.3,5.9,2638,1018.21,51.23,0.00,0.00,4.33,51.23
2006-05-12 03:00,8.1,6.2,7.6,2817,1017.66,68.40,0.00,0.00,6.17,68.40
2006-05-12 04:00,7.8,5.1,6.4,2801,1017.47,64.60,0.00,0.00,5.11,64.60
2006-05-12 05:00,,,,,,,,,,
2006-05-12 06:00,7.8,6.1,8.4,1544,1017.22,72.70,0.00,0.00,6.14,72.70
2006-05-12 07:00,7.8,6.1,7.6,1596,1017.35,75.60,0.00,0.00,6.08,75.60
2006-05-12 08:00,7.9,5.1,6.5,1689,1017.22,65.80,0.00,0.00,5.09,65.80
2006-05-12 09:00,8.0,5.1,6.7,1754,1017.29,64.50,0.00,0.00,5.05,64.50
2006-05-12 10:00,8.3,5.9,7.8,2950,1017.53,69.00,0.00,0.00,5.88,69.00
2006-05-12 11:00,8.0,7.6,9.9,1201,1017.66,78.50,0.00,0.00,7.58,78.50
2006-05-12 12:00,7.9,7.7,9.7,2365,1018.08,85.80,0.00,0.00,7.69,85.80
2006-05-12 13:00,7.8,7.3,9.1,1262,1017.96,79.00,0.00,0.00,7.26,79.00
2006-05-12 14:00,8.0,9.0,11.3,1106,1018.08,84.00,0.00,0.00,8.97,84.00
2006-05-12 15:00,8.0,9.3,11.4,1320,1018.33,83.60,0.00,0.00,9.28,83.60
2006-05-12 16:00,8.0,9.2,11.1,1659,1018.76,84.90,0.00,0.00,9.24,84.90
2006-05-12 17:00,,,,,,,,,,
2006-05-12 18:00,8.0,9.7,12.5,1383,1018.82,86.60,0.00,0.00,9.67,86.60
2006-05-12 19:00,8.0,10.7,12.5,1600,1018.39,87.50,0.00,0.00,10.70,87.50
2006-05-12 20:00,8.3,10.0,12.4,2117,1018.58,89.10,0.00,0.00,10.04,89.10
2006-05-12 21:00,8.3,10.4,12.9,2296,1018.82,,,,,88.40
2006-05-12 22:00,8.4,11.0,13.1,2571,1018.70,92.90,0.00,0.00,11.01,92.90
2006-05-12 23:00,8.5,11.5,14.0,1925,1018.70,90.30,0.00,0.00,11.46,90.30
2006-05-13 00:00,8.8,10.5,14.0,2529,1019.19,86.90,0.00,0.00,10.53,86.90
2006-05-13 01:00,9.0,11.4,13.8,2751,1019.31,92.50,0.00,0.00,11.41,92.50
2006-05-13 02:00,8.8,11.5,13.9,2801,1019.62,93.80,0.00,0.00,11.48,93.80
2006-05-13 03:00,8.9,11.9,14.1,2768,1019.50,85.10,0.00,0.00,11.85,85.10
2006-05-13 04:00,8.9,11.9,15.6,2832,1019.44,88.50,0.00,0.00,11.93,88.50
2006-05-13 05:00,8.5,11.8,15.2,2858,1019.56,88.50,0.00,0.00,11.77,88.50
2006-05-13 06:00,8.6,11.1,12.9,2931,1019.50,88.30,0.00,0.00,11.05,88.30
2006-05-13 07:00,8.7,11.2,13.6,2859,1019.62,84.50,0.00,0.00,11.17,84.50
2006-05-13 08:00,8.7,9.8,12.0,2927,1019.99,76.50,0.00,0.00,9.75,76.50
2006-05-13 09:00,8.8,10.2,13.4,2948,1020.36,76.80,0.00,0.00,10.17,76.80
2006-05-13 10:00,8.7,9.9,12.4,2952,1020.91,76.00,0.00,0.00,9.94,76.00
2006-05-13 11:00,8.5,9.1,11.2,2947,1021.53,72.80,0.00,0.00,9.07,72.80
2006-05-13 12:00,8.4,9.0,10.9,2936,1021.77,73.70,0.00,0.00,9.00,73.70
2006-05-13 13:00,8.3,10.0,11.8,2909,1021.89,72.50,0.00,0.00,10.03,72.50
2006-05-13 14:00,8.5,10.3,12.5,2840,1022.20,70.80,0.00,0.00,10.32,70.80
2006-05-13 15:00,8.4,10.1,12.1,2864,1022.69,74.20,0.00,0.00,10.10,74.20
2006-05-13 16:00,8.4,9.2,11.8,2841,1022.82,71.60,0.00,0.00,9.22,71.60
2006-05-13 17:00,8.6,9.1,11.0,2873,1022.76,71.00,0.00,0.00,9.07,71.00
2006-05-13 18:00,8.6,8.5,10.3,2885,1023.00,68.90,0.00,0.00,8.48,68.90
2006-05-13 19:00,8.4,7.9,9.8,2907,1023.18,75.00,0.00,0.00,7.95,75.00
2006-05-13 20:00,,,,,,,,,,
2006-05-13 21:00,8.9,7.0,8.3,2910,1023.49,71.20,0.00,0.00,6.95,71.20
2006-05-13 22:00,9.2,7.0,8.9,2725,1023.31,68.90,0.00,0.00,7.01,68.90
2006-05-13 23:00,10.1,8.4,11.4,2936,1023.18,79.90,0.00,0.00,8.35,79.90
2006-05-14 00:00,9.9,7.9,9.2,2902,1023.37,79.50,0.00,0.00,7.90,79.50
2006-05-14 01:00,10.2,9.4,11.6,2941,1023.37,84.80,0.00,0.00,9.35,84.80
2006-05-14 02:00,10.0,9.1,11.4,2949,1023.25,86.90,0.00,0.00,9.08,86.90
2006-05-14 03:00,9.3,9.1,11.2,2938,1023.25,88.20,0.00,0.00,9.14,88.20
2006-05-14 04:00,8.5,7.7,9.3,2943,1023.37,84.60,0.00,0.00,7.68,84.60
2006-05-14 05:00,8.3,7.6,9.4,2942,1023.37,79.70,0.00,0.00,7.60,79.70
2006-05-14 06:00,8.2,7.2,8.8,2950,1023.31,66.50,0.00,0.00,7.19,66.50
2006-05-14 07:00,7.9,7.7,9.2,2943,1023.43,60.20,0.00,0.00,7.65,60.20
2006-05-14 08:00,7.6,7.4,9.8,2938,1023.31,57.50,0.00,0.00,7.43,57.50
2006-05-14 09:00,7.2,8.9,11.1,2881,1023.49,63.10,0.00,0.00,8.91,63.10
2006-05-14 10:00,6.8,8.2,10.0,2843,1024.42,70.90,0.00,0.00,8.22,70.90
2006-05-14 11:00,6.7,8.6,10.5,2777,1024.60,66.90,0.00,0.00,8.59,66.90
2006-05-14 12:00,6.6,8.9,10.4,2839,1025.09,72.50,0.00,0.00,8.87,72.50
2006-05-14 13:00,6.7,8.5,10.2,2851,1024.97,72.20,0.00,0.00,8.49,72.20
2006-05-14 14:00,6.9,7.2,9.6,2906,1025.22,67.20,0.00,0.00,7.24,67.20
2006-05-14 15:00,7.2,6.6,7.9,2898,1025.46,70.50,0.00,0.00,6.61,70.50
2006-05-14 16:00,7.8,6.7,8.2,2854,1025.22,71.00,0.00,0.00,6.70,71.00
2006-05-14 17:00,8.3,7.3,8.6,2834,1024.97,76.50,0.00,0.00,7.29,76.50
2006-05-14 18:00,9.0,4.9,6.3,2871,1024.79,66.50,0.00,0.00,4.90,66.50
2006-05-14 19:00,10.1,6.3,9.2,2903,1024.72,74.80,0.00,0.00,6.29,74.80
2006-05-14 20:00,10.7,6.6,9.5,2913,1024.66,76.00,0.00,0.00,6.57,76.00
2006-05-14 21:00,10.7,4.3,5.5,2948,1024.66,66.20,0.00,0.00,4.25,66.20
2006-05-14 22:00,10.2,6.1,7.4,2948,1024.29,60.90,0.00,0.00,6.06,60.90
2006-05-14 23:00,10.0,6.2,7.5,2953,1023.98,55.00,0.00,0.00,6.18,55.00
2006-05-15 00:00,9.9,5.7,6.9,2955,1023.86,55.10,0.00,0.00,5.65,55.10
2006-05-15 01:00,9.8,3.9,5.3,2956,1024.17,65.30,0.00,0.00,3.94,65.30
2006-05-15 02:00,9.4,3.2,4.0,2956,1024.05,52.06,0.00,0.00,3.19,52.06
2006-05-15 03:00,9.4,3.2,4.1,2956,1023.80,53.20,0.00,0.00,3.19,53.20
2006-05-15 04:00,9.1,2.8,3.8,2955,1023.55,45.32,0.00,0.00,2.83,45.32
2006-05-15 05:00,9.0,3.3,4.5,2956,1023.37,43.99,0.00,0.00,3.30,43.99
2006-05-15 06:00,8.8,3.2,4.0,2956,1023.12,39.89,0.00,0.00,3.22,39.89
2006-05-15 07:00,8.6,3.6,4.7,2955,1022.94,42.46,0.00,0.00,3.63,42.46
2006-05-15 08:00,8.3,4.0,4.7,2955,1022.76,50.61,0.00,0.00,3.98,50.61
2006-05-15 09:00,7.6,3.5,4.3,2950,1023.25,67.70,0.00,0.00,3.51,67.70
2006-05-15 10:00,7.6,3.4,4.0,2931,1023.18,67.40,0.00,0.00,3.43,67.40
2006-05-15 11:00,7.9,4.8,5.8,2940,1023.43,70.60,0.00,0.00,4.80,70.60
2006-05-15 12:00,8.0,4.5,5.4,2942,1023.18,70.40,0.00,0.00,4.49,70.40
2006-05-15 13:00,,,,,,,,,,
2006-05-15 14:00,9.5,2.9,3.5,2947,1023.18,51.26,0.00,0.00,2.87,51.26
2006-05-15 15:00,10.3,4.0,5.1,2910,1022.57,53.90,0.00,0.00,3.96,53.90
2006-05-15 16:00,10.3,4.3,5.4,2941,1022.20,56.80,0.00,0.00,4.26,56.80
2006-05-15 17:00,10.1,2.6,3.8,2947,1022.02,78.00,0.00,0.00,2.62,78.00
2006-05-15 18:00,9.8,2.8,3.9,2930,1021.28,60.60,0.00,0.00,2.77,60.60
2006-05-15 19:00,9.9,1.3,2.9,2933,1020.79,51.81,0.00,0.00,1.25,51.81
2006-05-15 20:00,9.6,1.0,2.1,2930,1020.42,96.00,0.00,0.00,0.99,96.00
2006-05-15 21:00,9.4,2.5,3.1,2742,1019.62,78.70,0.00,0.00,2.51,78.70
2006-05-15 22:00,9.0,4.5,5.9,2459,1018.70,41.59,0.00,0.00,4.51,41.59
2006-05-15 23:00,8.6,3.8,5.1,1790,1018.33,46.14,0.00,0.00,3.85,46.14
2006-05-16 00:00,8.6,4.7,5.7,2662,1017.66,63.20,0.00,0.00,4.74,63.20
2006-05-16 01:00,8.5,4.3,5.3,2705,1017.41,62.80,0.00,0.00,4.28,62.80
2006-05-16 02:00,8.8,2.8,3.8,2866,1017.16,84.00,0.00,0.00,2.78,84.00
2006-05-16 03:00,8.4,3.3,4.0,2665,1016.24,94.70,0.00,0.00,3.34,94.70
2006-05-16 04:00,8.1,3.1,3.8,2601,1015.26,78.80,0.00,0.00,3.09,78.80
2006-05-16 05:00,8.4,3.2,4.8,1868,1014.40,66.20,0.00,0.00,3.23,66.20
2006-05-16 06:00,8.5,3.3,4.3, 512,1013.42,64.50,0.00,0.00,3.30,64.50
2006-05-16 07:00,8.9,0.4,3.1, 824,1013.05,56.50,0.00,0.00,0.37,56.50
2006-05-16 08:00,8.6,4.1,4.9, 357,1011.95,37.88,0.00,0.00,4.11,37.88
2006-05-16 09:00,8.5,3.6,4.7, 609,1011.58,28.75,0.00,0.00,3.61,28.75
2006-05-16 10:00,8.2,3.9,4.5, 579,1010.72,34.49,0.00,0.00,3.92,34.49
2006-05-16 11:00,8.4,4.3,5.3,1303,1009.87,39.20,0.00,0.00,4.30,39.20
2006-05-16 12:00,,,,,,,,,,
2006-05-16 13:00,,,,,,,,,,
2006-05-16 14:00,8.4,5.3,6.5,1528,1005.58,72.00,0.00,0.00,5.35,72.00
2006-05-16 15:00,9.1,6.1,7.2,2400,1004.17,104.80,0.00,0.00,6.06,104.80
2006-05-16 16:00,9.2,6.6,7.6, 718,1002.95,158.90,0.00,0.00,6.56,158.90
2006-05-16 17:00,8.8,4.1,5.3,2266,1002.40,177.20,0.00,0.00,4.05,177.20
2006-05-16 18:00,9.0,4.6,5.8,1075,1001.61,163.70,0.00,0.00,4.59,163.70
2006-05-16 19:00,9.0,3.7,4.6,1619,1000.57,146.40,0.00,0.00,3.69,146.40
2006-05-16 20:00,9.2,3.1,4.1,1259,999.16,113.40,0.00,0.00,3.12,113.40
2006-05-16 21:00,9.4,2.8,3.6, 470,998.43,131.50,0.00,0.00,2.76,131.50
2006-05-16 22:00,9.5,3.9,4.7, 823,997.21,131.60,0.00,0.00,3.86,131.60
2006-05-16 23:00,9.1,3.1,4.4, 228,996.66,130.70,0.00,0.00,3.13,130.70
2006-05-17 00:00,9.0,2.8,3.8, 246,996.66,191.80,0.00,0.00,2.76,191.80
2006-05-17 01:00,8.7,3.1,3.9, 248,996.29,172.30,0.00,0.00,3.14,172.30
2006-05-17 02:00,8.6,5.6,6.3, 438,995.62,213.60,0.00,0.00,5.57,213.60
2006-05-17 03:00,8.3,5.1,6.1, 822,995.38,221.00,0.00,0.00,5.12,221.00
2006-05-17 04:00,8.7,6.0,7.0,2166,995.56,215.20,0.00,0.00,5.96,215.20
2006-05-17 05:00,9.6,6.9,8.0,2947,995.87,236.30,0.00,0.00,6.90,236.30
2006-05-17 06:00,9.4,6.1,8.0,2918,996.29,223.50,0.00,0.00,6.15,223.50
2006-05-17 07:00,9.4,6.8,7.7,2947,996.72,225.10,0.00,0.00,6.78,225.10
2006-05-17 08:00,9.2,8.2,9.8,2899,997.15,218.40,0.00,0.00,8.24,218.40
2006-05-17 09:00,9.5,7.4,9.2,2805,997.45,235.90,0.00,0.00,7.45,235.90
2006-05-17 10:00,9.4,7.3,8.6,2761,997.82,227.80,0.00,0.00,7.34,227.80
2006-05-17 11:00,9.7,5.6,7.0,2816,998.31,231.30,0.00,0.00,5.60,231.30
2006-05-17 12:00,9.4,4.1,5.2,2802,998.12,214.10,0.00,0.00,4.14,214.10
2006-05-17 13:00,9.3,8.1,9.6,2453,998.61,217.60,0.00,0.00,8.14,217.60
2006-05-17 14:00,9.4,8.6,10.4,2793,998.74,216.70,0.00,0.00,8.64,216.70
2006-05-17 15:00,9.3,7.8,9.2,2816,998.74,218.50,0.00,0.00,7.81,218.50
2006-05-17 16:00,9.1,8.4,10.0,2724,998.49,207.40,0.00,0.00,8.37,207.40
2006-05-17 17:00,9.2,6.7,8.1,2699,998.43,215.00,0.00,0.00,6.69,215.00
2006-05-17 18:00,9.7,6.2,7.8,2768,998.19,208.30,0.00,0.00,6.23,208.30
2006-05-17 19:00,9.8,6.3,7.3,2676,997.94,203.30,0.00,0.00,6.27,203.30
2006-05-17 20:00,9.5,6.0,7.3,2549,997.58,196.10,0.00,0.00,6.05,196.10
2006-05-17 22:00,9.8,6.6,7.6,2764,997.58,210.60,0.00,0.00,6.60,210.60
2006-05-17 23:00,9.8,4.1,6.0,1881,997.94,214.00,0.00,0.00,4.07,214.00
2006-05-18 00:00,9.6,4.3,5.6,2626,998.25,222.00,0.00,0.00,4.28,222.00
2006-05-18 01:00,9.6,5.0,6.0,2665,998.31,206.00,0.00,0.00,5.04,206.00
2006-05-18 02:00,9.4,3.2,4.3,2609,998.43,211.50,0.00,0.00,3.23,211.50
2006-05-18 03:00,8.7,0.0,1.4,2412,998.37,342.70,0.00,0.00,0.00,
2006-05-18 04:00,8.6,2.5,3.1,2413,998.12,195.00,0.00,0.00,2.47,195.00
2006-05-18 05:00,8.5,1.9,2.4,2304,997.82,182.90,0.00,0.00,1.91,182.90
2006-05-18 06:00,8.4,1.7,2.3,2218,997.45,173.70,0.00,0.00,1.69,173.70
2006-05-18 07:00,8.4,2.3,3.0,2233,997.21,172.20,0.00,0.00,2.28,172.20
2006-05-18 08:00,8.3,0.0,1.4,2182,996.96,342.70,0.00,0.00,0.00,
2006-05-18 09:00,8.3,,,2253,997.33,342.70,0.00,0.00,0.00,
2006-05-18 10:00,8.3,2.1,2.5,2334,998.00,203.60,0.00,0.00,2.10,203.60
2006-05-18 11:00,8.6,0.0,1.3,2270,998.37,342.70,0.00,0.00,0.00,
2006-05-18 12:00,8.5,0.1,2.7,2199,998.67,131.90,0.00,0.00,0.08,131.90
2006-05-18 13:00,8.7,2.1,2.4,2289,999.16,143.10,0.00,0.00,2.06,143.10
2006-05-18 14:00,8.7,1.5,2.0,2437,999.04,158.50,0.00,0.00,1.47,158.50
2006-05-18 15:00,9.3,0.9,2.1,2496,999.16,125.30,0.00,0.00,0.86,125.30
2006-05-18 16:00,9.4,2.9,3.8,2626,999.10,128.10,0.00,0.00,2.90,128.10
2006-05-18 17:00,9.4,3.6,4.2,2670,999.10,151.40,0.00,0.00,3.65,151.40
2006-05-18 18:00,9.2,3.9,4.7,2528,999.41,164.40,0.00,0.00,3.86,164.40
2006-05-18 19:00,9.0,3.6,4.1,2445,999.47,168.60,0.00,0.00,3.64,168.60
2006-05-18 20:00,9.6,1.9,2.7,2594,999.35,146.10,0.00,0.00,1.92,146.10
2006-05-18 21:00,9.4,0.0,1.2,2315,1000.08,342.70,0.00,0.00,0.00,
2006-05-18 22:00,9.4,,,2403,1000.63,342.70,0.00,0.00,0.00,
2006-05-18 23:00,9.2,4.1,4.9,2523,1001.12,116.90,0.00,0.00,4.09,116.90
2006-05-19 00:00,9.2,3.6,4.1,2603,1001.85,107.40,0.00,0.00,3.61,107.40
2006-05-19 01:00,9.2,4.2,5.0,2568,1002.34,107.40,0.00,0.00,4.17,107.40
2006-05-19 02:00,8.8,4.1,4.7,2384,1002.83,107.20,0.00,0.00,4.05,107.20
2006-05-19 03:00,8.5,5.0,5.9,2643,1003.13,116.10,0.00,0.00,5.01,116.10
2006-05-19 04:00,8.5,5.5,6.7,2631,1003.32,123.20,0.00,0.00,5.54,123.20
2006-05-19 05:00,8.5,4.8,5.4,2546,1002.95,112.60,0.00,0.00,4.78,112.60
2006-05-19 06:00,8.7,3.9,4.8, 315,1002.77,134.80,0.00,0.00,3.94,134.80
2006-05-19 07:00,8.4,3.1,3.7, 293,1002.95,110.80,0.00,0.00,3.06,110.80
2006-05-19 08:00,8.4,5.0,5.8, 439,1003.13,120.00,0.00,0.00,4.97,120.00
2006-05-19 09:00,8.5,4.2,5.0, 317,1003.50,104.80,0.00,0.00,4.18,104.80
2006-05-19 10:00,8.7,3.3,4.0, 215,1003.75,89.10,0.00,0.00,3.26,89.10
2006-05-19 11:00,8.7,3.9,4.9, 178,1003.81,95.00,0.00,0.00,3.91,95.00
2006-05-19 12:00,8.8,2.3,3.5, 170,1003.62,75.40,0.00,0.00,2.29,75.40
2006-05-19 13:00,9.5,4.4,5.2, 294,1003.93,88.50,0.00,0.00,4.39,88.50
2006-05-19 14:00,10.2,2.6,4.0,1975,1003.56,104.40,0.00,0.00,2.59,104.40
2006-05-19 15:00,10.3,5.1,6.0,2474,1002.83,83.10,0.00,0.00,5.10,83.10
2006-05-19 16:00,10.3,7.3,8.9,1866,1001.61,102.30,0.00,0.00,7.34,102.30
2006-05-19 17:00,9.8,6.9,8.2,1448,1000.20,102.60,0.00,0.00,6.88,102.60
2006-05-19 18:00,10.1,9.4,11.1,1615,998.86,131.80,0.00,0.00,9.36,131.80
2006-05-19 19:00,10.4,10.3,12.0,1719,997.76,140.80,0.00,0.00,10.30,140.80
2006-05-19 20:00,9.9,10.0,11.7,1427,996.60,140.70,0.00,0.00,9.96,140.70
2006-05-19 21:00,10.0,10.6,12.4, 885,996.42,156.70,0.00,0.00,10.59,156.70
2006-05-19 22:00,9.5,8.7,9.8,1946,996.66,165.40,0.00,0.00,8.70,165.40
2006-05-19 23:00,9.5,8.1,9.4,2488,997.09,,,,,173.20
2006-05-20 00:00,9.4,7.6,8.8,2725,997.76,176.50,0.00,0.00,7.56,176.50
2006-05-20 01:00,9.4,6.7,7.7,2730,998.19,183.30,0.00,0.00,6.65,183.30
2006-05-20 02:00,9.1,6.9,8.1,2721,999.16,,,,,172.30
2006-05-20 03:00,8.9,7.5,8.8,2708,999.10,173.40,0.00,0.00,7.48,173.40
2006-05-20 04:00,9.0,6.4,7.5,2775,999.04,174.20,0.00,0.00,6.43,174.20
2006-05-20 05:00,8.9,7.1,8.2,2849,998.98,186.40,0.00,0.00,7.13,186.40
2006-05-20 06:00,8.8,7.0,8.1,2838,998.92,184.50,0.00,0.00,6.98,184.50
2006-05-20 07:00,8.5,5.6,7.2,2888,998.74,197.50,0.00,0.00,5.62,197.50
2006-05-20 08:00,8.8,6.4,7.6,2828,998.49,195.50,0.00,0.00,6.41,195.50
2006-05-20 09:00,8.9,8.3,9.6,2771,998.43,203.90,0.00,0.00,8.31,203.90
2006-05-20 10:00,8.9,7.9,9.3,2730,998.80,206.90,0.00,0.00,7.95,206.90
2006-05-20 11:00,8.9,8.0,9.2,2798,999.10,206.60,0.00,0.00,8.01,206.60
2006-05-20 12:00,9.3,7.6,9.8,2869,999.41,207.50,0.00,0.00,7.60,207.50
2006-05-20 13:00,9.4,7.2,9.0,2830,999.83,200.80,0.00,0.00,7.24,200.80
2006-05-20 15:00,9.4,7.6,9.6,2685,1000.08,213.20,0.00,0.00,7.55,213.20
2006-05-20 16:00,9.6,8.9,11.1,2707,1000.26,207.40,0.00,0.00,8.90,207.40
2006-05-20 17:00,9.4,6.8,8.7,2623,999.90,203.50,0.00,0.00,6.77,203.50
2006-05-20 18:00,9.1,6.6,7.7,2611,999.65,194.00,0.00,0.00,6.62,194.00
2006-05-20 19:00,9.1,6.3,8.5,2562,999.28,184.10,0.00,0.00,6.32,184.10
2006-05-20 20:00,9.2,4.4,6.3,2581,999.04,216.10,0.00,0.00,4.42,216.10
2006-05-20 21:00,9.2,4.9,6.2,2623,999.04,211.70,0.00,0.00,4.86,211.70
2006-05-20 22:00,9.5,5.3,6.6,2659,998.86,213.20,0.00,0.00,5.25,213.20
2006-05-20 23:00,9.1,3.7,6.1,1377,998.86,228.10,0.00,0.00,3.65,228.10
2006-05-21 00:00,9.0,3.5,4.8,2614,998.74,200.70,0.00,0.00,3.48,200.70
2006-05-21 01:00,8.8,4.7,5.6,2650,999.22,202.70,0.00,0.00,4.69,202.70
2006-05-21 02:00,9.0,4.7,5.4,2722,999.53,213.70,0.00,0.00,4.68,213.70
2006-05-21 03:00,9.4,5.1,6.2,2878,999.53,220.60,0.00,0.00,5.07,220.60
2006-05-21 04:00,9.3,3.2,4.4,2842,999.47,229.70,0.00,0.00,3.15,229.70
2006-05-21 05:00,9.4,2.3,2.9,2922,999.41,242.30,0.00,0.00,2.34,242.30
2006-05-21 06:00,10.2,2.9,4.2,2956,999.47,277.90,0.00,0.00,2.94,277.90
2006-05-21 07:00,10.0,2.5,3.3,2956,999.47,266.50,0.00,0.00,2.47,266.50
2006-05-21 08:00,9.8,2.1,2.3,2955,999.71,229.50,0.00,0.00,2.05,229.50
2006-05-21 09:00,9.0,1.5,1.9,2956,1000.20,213.00,0.00,0.00,1.50,213.00
2006-05-21 10:00,8.9,1.6,2.0,2953,1000.69,220.10,0.00,0.00,1.56,220.10
2006-05-21 11:00,9.0,2.8,3.3,2937,1000.99,223.50,0.00,0.00,2.79,223.50
2006-05-21 12:00,9.5,2.7,3.5,2956,1001.30,204.90,0.00,0.00,2.66,204.90
2006-05-21 13:00,9.1,4.2,5.3,2950,1001.06,187.50,0.00,0.00,4.21,187.50
2006-05-21 14:00,9.1,3.6,4.1,2944,1000.69,183.70,0.00,0.00,3.59,183.70
2006-05-21 15:00,9.2,6.1,7.4,2931,1000.75,194.80,0.00,0.00,6.14,194.80
2006-05-21 16:00,8.9,6.1,7.2,2893,1000.63,192.20,0.00,0.00,6.12,192.20
2006-05-21 17:00,9.0,4.3,5.5,2932,999.90,190.30,0.00,0.00,4.26,190.30
2006-05-21 18:00,9.1,5.7,7.0,2891,999.83,202.90,0.00,0.00,5.74,202.90
2006-05-21 19:00,9.2,4.6,6.1,2927,999.22,184.40,0.00,0.00,4.57,184.40
2006-05-21 20:00,9.2,5.8,6.9,2941,998.67,202.00,0.00,0.00,5.78,202.00
2006-05-21 21:00,9.7,5.0,6.2,2928,998.74,214.00,0.00,0.00,5.01,214.00
2006-05-21 22:00,9.4,0.0,2.4,2920,997.64,342.70,0.00,0.00,0.00,
2006-05-21 23:00,8.8,4.7,5.4,2478,998.43,203.90,0.00,0.00,4.70,203.90
2006-05-22 00:00,9.0,3.6,4.2,2734,998.06,180.10,0.00,0.00,3.62,180.10
2006-05-22 01:00,9.0,4.1,4.6,2456,996.60,75.90,0.00,0.00,4.15,75.90
2006-05-22 02:00,9.8,2.7,3.6,2954,996.11,99.40,0.00,0.00,2.68,99.40
2006-05-22 03:00,,,,,,,,,,
2006-05-22 04:00,9.4,3.6,4.4,2740,994.59,339.30,0.00,0.00,3.62,339.30
2006-05-22 05:00,9.2,1.8,3.3,2910,993.91,43.54,0.00,0.00,1.83,43.54
2006-05-22 06:00,9.4,3.0,3.6,2939,993.18,6.21,0.00,0.00,2.95,6.21
2006-05-22 07:00,8.4,7.5,10.0,2956,993.00,307.50,0.00,0.00,7.51,307.50
2006-05-22 08:00,7.8,8.8,10.6,2953,993.18,298.40,0.00,0.00,8.76,298.40
2006-05-22 09:00,7.8,8.3,10.1,2956,993.85,300.80,0.00,0.00,8.31,300.80
2006-05-22 10:00,7.8,9.0,11.7,2956,994.83,293.60,0.00,0.00,9.04,293.60
2006-05-22 11:00,8.1,9.2,10.8,2956,995.74,297.00,0.00,0.00,9.24,297.00
2006-05-22 12:00,9.0,7.9,9.3,2953,996.72,300.90,0.00,0.00,7.93,300.90
2006-05-22 13:00,10.6,7.3,9.3,2950,997.09,306.20,0.00,0.00,7.26,306.20
2006-05-22 14:00,12.0,9.9,13.1,2914,997.82,309.30,0.00,0.00,9.94,309.30
2006-05-22 15:00,12.7,10.3,13.3,2894,998.37,319.80,0.00,0.00,10.26,319.80
2006-05-22 16:00,13.2,9.3,11.2,2947,999.16,295.50,0.00,0.00,9.32,295.50
2006-05-22 17:00,13.7,9.2,12.0,2940,999.65,302.40,0.00,0.00,9.17,302.40
2006-05-22 18:00,13.9,8.7,10.5,2954,1000.02,316.50,0.00,0.00,8.67,316.50
2006-05-22 19:00,14.4,8.4,10.7,2947,1000.57,306.30,0.00,0.00,8.42,306.30
2006-05-22 20:00,13.6,10.2,12.6,2954,1001.12,296.60,0.00,0.00,10.22,296.60
2006-05-22 21:00,13.0,9.8,12.4,2949,1002.16,314.50,0.00,0.00,9.83,314.50
2006-05-22 22:00,12.5,8.1,9.6,2956,1003.07,307.90,0.00,0.00,8.05,307.90
2006-05-22 23:00,12.1,7.7,9.6,2956,1004.30,307.60,0.00,0.00,7.71,307.60
2006-05-23 00:00,11.2,8.7,11.2,2933,1004.85,309.80,0.00,0.00,8.67,309.80
2006-05-23 01:00,10.2,7.2,9.1,2956,1006.01,314.10,0.00,0.00,7.21,314.10
2006-05-23 02:00,9.4,6.8,8.7,2956,1006.62,310.60,0.00,0.00,6.84,310.60
2006-05-23 03:00,8.9,5.0,5.9,2956,1006.87,318.70,0.00,0.00,5.04,318.70
2006-05-23 04:00,8.7,3.8,4.8,2956,1006.87,290.00,0.00,0.00,3.84,290.00
2006-05-23 05:00,8.5,3.4,5.0,2956,1006.62,280.70,0.00,0.00,3.41,280.70
2006-05-23 06:00,8.2,2.5,3.4,2956,1006.32,280.20,0.00,0.00,2.54,280.20
2006-05-23 07:00,8.1,2.5,3.1,2956,1006.25,271.80,0.00,0.00,2.50,271.80
2006-05-23 09:00,8.1,4.2,4.9,2956,1006.32,258.20,0.00,0.00,4.19,258.20
2006-05-23 10:00,8.1,4.4,5.0,2956,1006.62,262.10,0.00,0.00,4.37,262.10
2006-05-23 11:00,8.2,3.7,4.9,2956,1006.87,290.60,0.00,0.00,3.74,290.60
2006-05-23 12:00,8.4,4.0,5.1,2955,1007.17,297.40,0.00,0.00,4.01,297.40
2006-05-23 13:00,9.2,3.7,4.9,2948,1007.17,304.40,0.00,0.00,3.65,304.40
2006-05-23 14:00,10.4,3.9,5.0,2947,1007.17,295.30,0.00,0.00,3.92,295.30
2006-05-23 15:00,11.1,4.2,5.6,2934,1007.17,291.70,0.00,0.00,4.18,291.70
2006-05-23 16:00,11.7,2.8,3.7,2928,1006.87,248.90,0.00,0.00,2.78,248.90
2006-05-23 17:00,11.5,4.2,5.6,2941,1006.44,182.90,0.00,0.00,4.18,182.90
2006-05-23 18:00,11.2,7.0,8.9,2953,1006.07,195.00,0.00,0.00,7.00,195.00
2006-05-23 19:00,11.5,6.8,8.0,2945,1005.70,208.00,0.00,0.00,6.80,208.00
2006-05-23 20:00,14.7,4.9,6.3,2956,1005.40,306.20,0.00,0.00,4.87,306.20
2006-05-23 21:00,14.9,7.0,9.1,2953,1005.46,312.80,0.00,0.00,6.97,312.80
2006-05-23 22:00,14.1,8.7,10.2,2956,1006.07,,,,,317.50
2006-05-23 23:00,13.5,6.2,8.3,2955,1007.17,307.10,0.00,0.00,6.17,307.10
2006-05-24 00:00,12.7,7.4,9.2,2956,1008.09,321.30,0.00,0.00,7.42,321.30
2006-05-24 01:00,12.4,5.1,6.5,2956,1008.76,300.30,0.00,0.00,5.12,300.30
2006-05-24 02:00,12.0,4.4,6.0,2956,1009.01,302.20,0.00,0.00,4.38,302.20
2006-05-24 03:00,11.4,3.8,4.7,2956,1009.01,295.80,0.00,0.00,3.83,295.80
2006-05-24 04:00,11.5,4.5,6.0,2956,1009.13,296.20,0.00,0.00,4.51,296.20
2006-05-24 05:00,11.1,3.9,4.7,2956,1009.07,290.20,0.00,0.00,3.85,290.20
2006-05-24 06:00,11.1,4.5,5.5,2956,1009.07,297.30,0.00,0.00,4.47,297.30
2006-05-24 07:00,10.8,4.1,5.1,2956,1009.01,291.90,0.00,0.00,4.07,291.90